TimeMDT,TemperatureF,Dew PointF,Humidity,Sea Level PressureIn,VisibilityMPH,Wind Direction,Wind SpeedMPH,Gust SpeedMPH,PrecipitationIn,Events,Conditions,WindDirDegrees,DateUTC
12:53 AM,39.9,32.0,73,29.94,10.0,SE,6.9,-,N/A,,Clear,130,2012-10-12 06:53:00
1:53 AM,35.6,30.2,81,29.92,8.0,Calm,Calm,-,N/A,,Clear,0,2012-10-12 07:53:00
2:53 AM,34.0,28.9,82,29.94,10.0,Calm,Calm,-,N/A,,Clear,0,2012-10-12 08:53:00
3:53 AM,34.0,28.9,82,29.94,10.0,Calm,Calm,-,N/A,,Clear,0,2012-10-12 09:53:00
4:53 AM,30.9,28.0,89,29.94,10.0,Calm,Calm,-,N/A,,Clear,0,2012-10-12 10:53:00
5:53 AM,30.9,28.0,89,29.94,10.0,Calm,Calm,-,N/A,,Clear,0,2012-10-12 11:53:00
6:53 AM,30.0,26.1,85,29.96,10.0,Calm,Calm,-,N/A,,Clear,0,2012-10-12 12:53:00
7:53 AM,30.2,28.4,93,29.91,10.0,Calm,Calm,-,N/A,,Clear,0,2012-10-12 13:53:00
8:53 AM,30.9,27.0,85,29.97,10.0,Calm,Calm,-,N/A,,Clear,0,2012-10-12 14:53:00
9:53 AM,37.4,32.0,81,29.92,7.0,Calm,Calm,-,N/A,,Clear,0,2012-10-12 15:53:00
10:53 AM,41.0,32.0,70,29.91,8.0,Calm,Calm,-,N/A,,Clear,0,2012-10-12 16:53:00
11:53 AM,46.0,32.0,58,29.91,8.0,Calm,Calm,-,N/A,,Clear,0,2012-10-12 17:53:00
12:53 PM,51.1,32.0,48,29.88,8.0,Calm,Calm,-,N/A,,Clear,0,2012-10-12 18:53:00
1:53 PM,57.0,32.0,39,29.84,8.0,Calm,Calm,-,N/A,,Clear,0,2012-10-12 19:53:00
2:53 PM,62.1,30.9,31,29.81,8.0,WSW,3.5,-,N/A,,Clear,250,2012-10-12 20:53:00
3:53 PM,66.2,32.0,28,29.78,8.0,Calm,Calm,-,N/A,,Clear,0,2012-10-12 21:53:00
4:53 PM,68.0,28.9,23,29.78,6.0,WNW,5.8,-,N/A,,Haze,300,2012-10-12 22:53:00
5:53 PM,69.1,17.1,14,29.81,10.0,NW,12.7,-,N/A,,Overcast,310,2012-10-12 23:53:00
6:53 PM,66.0,18.0,16,29.83,10.0,West,18.4,26.5,N/A,,Overcast,270,2012-10-13 00:53:00
7:53 PM,63.0,19.9,19,29.86,10.0,NW,11.5,18.4,N/A,,Scattered Clouds,310,2012-10-13 01:53:00
8:53 PM,62.1,25.0,24,29.88,10.0,North,-9999.0,-,N/A,,Mostly Cloudy,0,2012-10-13 02:53:00
9:53 PM,57.9,27.0,31,29.89,10.0,Calm,Calm,-,N/A,,Partly Cloudy,0,2012-10-13 03:53:00
10:53 PM,57.9,28.9,33,29.91,10.0,Calm,Calm,-,N/A,,Clear,0,2012-10-13 04:53:00
11:53 PM,55.0,32.0,42,29.91,10.0,SE,3.5,-,N/A,,Scattered Clouds,130,2012-10-13 05:53:00